Satellite: HORYU-2
Catalog number: 38340
Epoch time:      12144.32142747
Element set:    0018
Inclination:      098.1772 deg
RA of node:       083.9989 deg
Eccentricity:    0.0014654
Arg of perigee:   051.5833 deg
Mean anomaly:     308.6703 deg
Mean motion:   14.69926881 rev/day
Decay rate:      3.745e-05 rev/day^2
Epoch rev:           00081
Checksum:              314

/EX


_______________________________________________
Via the Keps mailing list courtesy of AMSAT-NA
http://amsat.org/mailman/listinfo/keps

--- ViaMAIL!/WC v1.60d
 * Origin: Chowdanet (401-724-4410) telnet://chowdanet.com  (1:323/120)